Terug naar catalogus

STARLINK-30520

ActiefCommunicatieVLEO
NORAD 58010·PAYLOAD·🇺🇸 United States

Gelanceerd Oct 5, 2023 vanaf Cape Canaveral Space Force Station

Loading…

Volgende Passages (komende 24 uur)

TLE

VersSource: CelesTrak SupGP

Epoch: Sep 14, 2026, 20:42 UTC

1 58010C 23153V   26257.86298611  .00031591  00000+0  11444-2 0  2572
2 58010  43.0037  78.6196 0001814 271.8372 272.2046 15.27558137    12

Volg STARLINK-30520 in realtime met AllMySat

Download on the App Store